FW5182 Weather Reports


time (UTC)temp
F
wind
direction
speed
knots
gust
knots
rain 1hr
in
rain 24hr
in
rain mn
in
humidity
%
barometer
mb
20260508114543 57 0.0 0.0 0.00 0.00 0.00 1026.2
20260508113123 57 0.0 0.0 0.00 0.00 0.00 1026.0
20260508111543 57 0.0 0.0 0.00 0.00 0.00 25 1026.0
20260508104543 57 0.0 0.0 0.00 0.00 0.00 27 1026.0
20260508103019 56 0.0 0.0 0.00 0.00 0.00 27 1025.9
20260508101517 56 0.0 0.0 0.00 0.00 0.00 27 1026.0
20260508100020 56 0.0 0.0 0.00 0.00 0.00 29 1026.3
20260508094526 56 0.0 0.0 0.00 0.00 0.00 29 1025.7
20260508093027 56 0.0 0.0 0.00 0.00 0.00 29 1025.8
20260508091532 55 0.0 0.0 0.00 0.00 0.00 30 1025.8
20260508090036 56 0.0 0.0 0.00 0.00 0.00 30 1026.0
20260508084539 56 0.0 0.0 0.00 0.00 0.00 30 1025.8
20260508083043 56 0.0 0.0 0.00 0.00 0.00 29 1025.9
20260508081541 57 0.0 0.0 0.00 0.00 0.00 30 1025.8
20260508080047 57 0.0 0.0 0.00 0.00 0.00 31 1025.7
20260508074545 57 0.0 0.0 0.00 0.00 0.00 32 1025.4
20260508073044 56 0.0 0.0 0.00 0.00 0.00 32 1025.7
20260508071542 57 0.0 0.0 0.00 0.00 0.00 32 1025.5
20260508070044 56 0.0 0.0 0.00 0.00 0.00 33 1025.5
20260508063042 56 0.0 0.0 0.00 0.00 0.00 33 1024.9
20260508061543 57 0.0 0.0 0.00 0.00 0.00 34 1024.7
20260508054531 56 0.0 0.0 0.00 0.00 0.00 36 1024.5
20260508053040 54 0.0 0.0 0.00 0.00 0.00 37 1024.4
20260508051540 53 0.0 0.0 0.00 0.00 0.00 39 1024.4
20260508050044 50 0.0 0.0 0.00 0.00 0.00 41 1024.1
20260508044542 47 0.0 0.0 0.00 0.00 0.00 44 1023.9
20260508043042 45 0.0 0.0 0.00 0.00 0.00 44 1023.8
20260508041543 43 0.0 0.0 0.00 0.00 0.00 45 1023.7
20260508040041 42 0.0 0.0 0.00 0.00 0.00 45 1023.6
20260508034543 41 0.0 0.0 0.00 0.00 0.00 45 1023.3
20260508033045 40 0.0 0.0 0.00 0.00 0.00 45 1023.3
20260508030019 40 0.0 0.0 0.00 0.00 0.00 44 1023.1
20260508024524 40 0.0 0.0 0.00 0.00 0.00 43 1022.6
20260508023027 40 0.0 0.0 0.00 0.00 0.00 43 1022.5
20260508021532 40 0.0 0.0 0.00 0.00 0.00 43 1022.2
20260508020035 40 0.0 0.0 0.00 0.00 0.00 42 1022.3
20260508014637 41 0.0 0.0 0.00 0.00 0.00 42 1022.0
20260508013042 41 0.0 0.0 0.00 0.00 0.00 41 1021.8
20260508011537 41 0.0 0.0 0.00 0.00 0.00 41 1021.7
20260508010044 42 0.0 0.0 0.00 0.00 0.00 41 1021.5
20260508003043 42 0.0 0.0 0.00 0.00 0.00 40 1021.1
20260508001528 43 0.0 0.0 0.00 0.00 0.00 40 1020.9
20260508000043 43 0.0 0.0 0.00 0.00 0.00 39 1020.7
20260507234517 43 0.0 0.0 0.00 0.00 0.00 39 1020.6
20260507233022 43 0.0 0.0 0.00 0.00 0.00 38 1020.4
20260507231528 43 0.0 0.0 0.00 0.00 0.00 38 1020.0
20260507230027 43 0.0 0.0 0.00 0.00 0.00 38 1020.0
20260507224523 44 0.0 0.0 0.00 0.00 0.00 37 1019.7
20260507223035 44 0.0 0.0 0.00 0.00 0.00 37 1019.7
20260507221521 44 0.0 0.0 0.00 0.00 0.00 37 1019.7
20260507220043 44 0.0 0.0 0.00 0.00 0.00 36 1019.5
20260507214519 44 0.0 0.0 0.00 0.00 0.00 36 1019.0
20260507213045 45 0.0 0.0 0.00 0.00 0.00 35 1018.8
20260507211517 44 0.0 0.0 0.00 0.00 0.00 36 1018.7
20260507210042 45 0.0 0.0 0.00 0.00 0.00 35 1018.7
20260507204543 45 0.0 0.0 0.00 0.00 0.00 35 1018.4
20260507203044 45 0.0 0.0 0.00 0.00 0.00 35 1018.1
20260507201542 44 0.0 0.0 0.00 0.00 0.00 35 1018.0
20260507194543 46 0.0 0.0 0.00 0.00 0.00 34 1017.5
20260507191546 48 0.0 0.0 0.00 0.00 0.00 32 1017.0
20260507190043 49 0.0 0.0 0.00 0.00 0.00 31 1017.0
20260507184544 49 0.0 0.0 0.00 0.00 0.00 31 1016.7
20260507183144 50 0.0 0.0 0.00 0.00 0.00 30 1016.8
20260507181542 51 0.0 0.0 0.00 0.00 0.00 29 1016.6
20260507180044 51 0.0 0.0 0.00 0.00 0.00 29 1016.5
20260507174542 51 0.0 0.0 0.00 0.00 0.00 29 1016.6
20260507173043 52 0.0 0.0 0.00 0.00 0.00 29 1016.4
20260507171544 52 0.0 0.0 0.00 0.00 0.00 29 1016.4
20260507170043 52 0.0 0.0 0.00 0.00 0.00 30 1016.4
20260507164543 53 0.0 0.0 0.00 0.00 0.00 29 1016.3
20260507163042 53 0.0 0.0 0.00 0.00 0.00 30 1016.3
20260507161547 53 0.0 0.0 0.00 0.00 0.00 29 1016.2
20260507160044 53 0.0 0.0 0.00 0.00 0.00 28 1016.3
20260507154547 54 0.0 0.0 0.00 0.00 0.00 27 1015.9
20260507153045 54 0.0 0.0 0.00 0.00 0.00 28 1015.8
20260507151544 55 0.0 0.0 0.00 0.00 0.00 28 1015.9
20260507150045 55 0.0 0.0 0.00 0.00 0.00 27 1016.0
20260507144549 55 0.0 0.0 0.00 0.00 0.00 27 1016.0
20260507143045 56 0.0 0.0 0.00 0.00 0.00 26 1015.8
20260507140040 56 0.0 0.0 0.00 0.00 0.00 26 1015.4
20260507134543 56 0.0 0.0 0.00 0.00 0.00 26 1015.6
20260507133039 56 0.0 0.0 0.00 0.00 0.00 26 1015.5
20260507131517 56 0.0 0.0 0.00 0.00 0.00 26 1015.7
20260507130020 56 0.0 0.0 0.00 0.00 0.00 27 1015.5
20260507124529 56 0.0 0.0 0.00 0.00 0.00 27 1015.5
20260507123030 57 0.0 0.0 0.00 0.00 0.00 28 1015.5
20260507121545 57 0.0 0.0 0.00 0.00 0.00 28 1015.4
20260507120033 57 0.0 0.0 0.00 0.00 0.00 29 1015.4